Overview Statistics Trail Chart Weather Telemetry Raw packets
 

This is the latest recevied weather packets stored in our database for station/object 4S6DRJ-13. If no packets are shown the sender has not sent any weather packets the latest 10 day(s).

<< 272 273 274 275 276 277 278 >>
Time Temp. Humidity Pressure Rain* Wind** Luminosity Snow
1788068800 30.56° C 74% 1010.6 hPa 0 mm 0.89 m/s, 241° 528 W/m² -
1788068739 30.56° C 73% 1010.7 hPa 0 mm 1.79 m/s, 216° 1102 W/m² -
1788068678 30.56° C 74% 1010.6 hPa 0 mm 2.68 m/s, 176° 842 W/m² -
1788068617 30.56° C 73% 1010.5 hPa 0 mm 1.79 m/s, 245° 955 W/m² -
1788068556 30.56° C 74% 1010.6 hPa 0 mm 0.89 m/s, 185° 906 W/m² -
1788068495 30.56° C 73% 1010.6 hPa 0 mm 0.89 m/s, 131° 933 W/m² -
1788068434 30.56° C 73% 1010.7 hPa 0 mm 1.79 m/s, 283° 486 W/m² -
1788068373 30.56° C 72% 1010.7 hPa 0 mm 1.79 m/s, 187° 494 W/m² -
1788068312 30.56° C 72% 1010.7 hPa 0 mm 2.24 m/s, 206° 868 W/m² -
1788068251 30.56° C 74% 1010.7 hPa 0 mm 0.45 m/s, 232° 807 W/m² -
1788068190 30.56° C 73% 1010.7 hPa 0 mm 1.79 m/s, 129° 784 W/m² -
1788068129 30.56° C 73% 1010.7 hPa 0 mm 2.68 m/s, 198° 776 W/m² -
1788068068 30.56° C 72% 1010.5 hPa 0 mm 2.68 m/s, 213° 717 W/m² -
1788068006 30.56° C 72% 1010.7 hPa 0 mm 1.34 m/s, 269° 636 W/m² -
1788067945 30.56° C 73% 1010.6 hPa 0 mm 1.34 m/s, 201° 646 W/m² -
1788067896 30.56° C 73% 1010.8 hPa 0 mm 1.79 m/s, 179° 635 W/m² -
1788067824 30.56° C 73% 1010.6 hPa 0 mm 2.24 m/s, 237° 558 W/m² -
1788067763 30.56° C 72% 1010.6 hPa 0 mm 1.34 m/s, 245° 545 W/m² -
1788067701 30.56° C 73% 1010.9 hPa 0 mm 1.34 m/s, 180° 680 W/m² -
1788067640 30.56° C 74% 1010.8 hPa 0 mm 1.79 m/s, 282° 620 W/m² -
1788067580 30.56° C 73% 1010.6 hPa 0 mm 2.24 m/s, 277° 620 W/m² -
1788067519 30.56° C 73% 1010.6 hPa 0 mm 0.89 m/s, 133° 601 W/m² -
1788067458 30° C 72% 1010.6 hPa 0 mm 2.24 m/s, 155° 534 W/m² -
1788067396 30° C 72% 1010.9 hPa 0 mm 1.79 m/s, 249° 602 W/m² -
1788067336 30.56° C 71% 1010.8 hPa 0 mm 1.79 m/s, 245° 607 W/m² -

* Rain latest hour (hover to see other rain measurements)
** Current wind speed in m/s (hover to see current wind gust speed)